Theta_e
332 333 335 326 310 308 304 309 316 314 316 323 324 322 322 325 321 314 334 334 341 338 339 340 344 344 342 340 339 338 337 337 337 336 336 336 335 335 334 334 334 334 333 333 333 333 333 332 332
330 329 327 319 305 300 303 313 312 317 323 326 326 324 323 321 327 328 329 334 338 338 338 339 343 345 343 341 340 339 337 337 336 336 336 335 334 334 333 333 333 334 333 334 333 333 333 332 332
329 327 317 310 304 300 303 313 316 322 325 324 323 328 325 321 328 329 335 332 336 337 335 340 343 344 344 343 341 339 337 337 336 335 335 334 334 333 333 333 333 333 333 333 333 333 333 333 333
324 322 317 306 302 306 308 315 321 320 322 325 325 321 328 333 331 334 333 332 336 336 337 340 343 345 343 343 341 338 337 336 336 335 334 333 333 333 333 333 333 334 334 333 332 333 335 335 335
324 318 306 303 304 307 313 319 321 319 321 323 324 321 323 331 336 334 331 332 333 334 339 340 342 343 343 342 339 338 336 336 335 335 334 333 333 333 333 333 334 334 335 336 336 336 335 335 335
315 315 302 300 303 308 314 320 321 320 322 323 323 323 323 333 332 331 328 330 336 336 340 339 336 339 340 341 340 339 337 336 335 334 334 333 333 333 334 334 334 334 335 336 336 336 336 336 335
313 308 304 304 303 306 312 323 320 319 321 320 327 321 324 328 333 328 327 330 334 336 337 338 338 336 334 336 337 338 338 337 335 335 334 333 333 332 331 330 331 334 335 336 336 335 336 336 336
317 312 304 305 303 304 315 321 323 321 320 328 327 319 319 328 333 327 327 330 331 332 333 334 335 335 333 335 331 334 336 336 336 335 333 332 332 332 331 330 330 332 334 334 335 334 334 334 334
319 308 303 304 305 307 318 317 321 325 323 325 326 326 331 331 330 328 327 328 328 328 330 332 330 330 334 337 332 330 331 332 332 333 333 331 335 335 334 329 329 331 332 333 333 333 333 331 330
311 306 305 310 310 309 316 318 319 320 321 320 321 329 329 328 328 326 326 324 325 325 327 332 333 334 338 336 336 335 336 336 337 336 336 335 337 337 333 327 327 329 329 331 332 332 332 328 334
310 306 310 311 312 315 316 317 322 319 318 321 319 323 326 327 326 326 325 324 324 325 326 329 331 333 333 332 334 333 334 336 337 337 338 338 337 338 338 337 338 337 327 337 336 335 335 335 334
305 311 312 314 315 314 314 318 316 319 319 324 325 325 326 325 326 326 324 324 325 327 328 330 332 333 335 334 333 333 335 337 335 336 333 334 334 335 337 335 335 334 334 333 334 334 334 332 331
307 309 312 313 312 314 316 314 316 314 321 325 325 325 324 325 325 327 325 326 327 326 329 331 332 331 332 333 333 336 336 335 328 323 322 326 334 334 333 328 325 324 328 331 331 330 330 328 322
310 309 310 311 311 312 312 313 314 311 318 320 322 322 320 317 317 318 322 327 329 329 329 331 331 332 333 334 335 332 328 323 318 316 316 318 321 322 320 317 316 314 317 322 322 324 317 315 314
307 305 308 309 312 311 315 306 310 311 314 314 314 312 310 309 311 311 313 317 317 319 319 326 330 335 335 331 323 319 318 318 314 310 310 311 313 315 316 316 313 311 312 314 315 315 312 309 308
301 303 299 306 310 309 311 303 306 309 310 309 310 308 307 306 304 305 306 308 311 314 317 319 321 331 327 321 316 312 309 307 307 307 307 308 308 310 311 309 308 309 308 308 309 307 306 306 305
298 294 299 301 307 307 306 304 305 307 308 305 306 306 305 302 302 303 305 308 311 314 317 322 326 326 318 313 308 305 305 304 305 305 305 306 307 307 307 306 306 305 305 304 305 305 304 303 302
287 291 299 299 301 303 303 303 305 305 307 305 304 304 303 302 301 302 304 307 311 314 316 319 324 318 313 307 304 303 303 303 304 304 304 304 304 304 304 304 304 303 302 301 302 303 303 301 300
294 293 289 301 299 300 302 300 302 303 306 304 304 303 302 301 301 302 303 306 309 309 311 316 312 310 306 303 302 300 298 300 301 301 302 302 301 301 302 301 300 302 299 299 299 300 300 299 299
293 287 286 291 297 296 302 297 302 301 303 304 306 306 304 300 301 301 303 305 307 301 302 306 312 310 308 306 303 301 300 300 300 300 299 300 299 299 299 299 298 298 298 297 297 298 298 298 298
292 286 286 286 291 295 298 293 294 297 301 302 304 304 303 302 300 298 299 302 303 298 299 300 302 303 301 300 300 299 300 299 298 298 297 298 298 298 297 297 297 297 297 295 296 296 295 294 296
289 295 292 288 286 285 295 288 292 294 294 295 300 301 300 300 300 298 298 299 298 296 297 298 298 299 300 300 300 302 300 296 296 296 296 297 297 296 296 296 296 296 295 294 295 295 294 294 291
292 295 292 291 286 285 286 287 296 296 292 294 297 299 298 295 295 295 295 296 294 296 296 296 297 297 299 301 302 300 297 297 297 296 296 296 296 296 295 295 295 294 294 293 293 293 293 293 292
297 294 292 291 287 282 287 285 290 291 295 298 300 299 296 294 295 295 295 295 293 295 295 296 295 296 298 299 299 297 296 296 296 296 295 295 295 295 294 294 293 293 292 292 292 292 292 291 291
292 290 283 281 280 280 290 284 288 297 300 300 298 297 296 295 294 293 292 294 293 293 293 294 294 293 295 296 296 296 296 296 295 295 294 294 293 293 292 292 291 291 291 290 291 290 290 290 289
289 290 283 277 280 283 287 284 290 297 298 303 300 298 296 295 294 291 292 292 293 293 294 294 293 292 292 293 293 294 294 294 293 293 293 293 292 291 292 291 291 290 290 289 289 289 288 289 288
288 286 292 284 284 282 286 290 294 293 296 298 295 294 292 292 291 291 293 293 293 292 292 292 291 291 291 291 292 292 292 292 291 291 292 292 292 290 290 291 290 289 289 289 288 287 286 287 287
291 293 284 285 277 276 282 286 287 289 294 296 295 294 294 293 292 292 292 293 292 291 291 291 290 290 290 290 290 290 290 290 290 290 290 290 290 290 289 289 289 288 288 288 287 287 286 286 286
288 287 289 289 286 280 278 284 291 294 296 295 296 297 296 293 292 291 291 291 291 291 290 290 289 288 288 289 289 289 288 289 289 289 289 289 289 288 287 287 286 286 286 286 286 286 285 284 284
291 288 289 283 282 285 283 285 288 289 294 297 296 296 295 293 292 291 291 290 290 289 289 289 289 288 289 289 288 288 287 288 287 287 287 287 287 287 286 285 284 284 284 284 284 284 284 284 283
Wind_Speed
8 7 5 5 7 7 13 6 4 6 7 4 6 4 12 13 9 4 8 7 22 15 15 14 12 13 13 13 13 13 13 13 13 13 12 12 11 11 11 11 10 10 10 10 10 10 10 10 10
4 3 5 7 9 11 10 7 11 5 7 10 8 5 4 8 9 12 9 12 18 15 15 15 11 14 15 15 14 13 13 12 12 11 11 10 10 10 9 9 9 8 8 8 8 8 9 9 9
9 4 7 6 12 12 10 10 10 10 10 8 5 8 4 6 11 10 11 16 16 15 14 15 11 13 15 14 14 13 13 12 11 10 9 9 9 8 8 7 8 8 8 9 9 9 8 8 8
6 6 5 10 13 17 8 13 16 13 7 4 9 10 9 10 6 10 17 17 15 13 15 13 10 11 16 14 13 13 12 11 10 10 9 8 7 6 6 6 6 6 6 7 7 8 8 7 7
8 6 10 13 18 17 5 4 15 13 12 10 6 8 11 6 10 17 16 14 15 12 14 12 9 13 15 14 13 12 11 10 9 8 7 6 5 5 5 5 6 7 8 8 8 7 7 8 8
8 9 11 14 18 12 8 9 13 11 8 9 8 14 7 5 13 15 15 14 14 13 13 12 11 11 13 12 13 12 11 9 8 7 6 4 4 4 5 6 6 6 6 7 8 8 7 7 7
15 12 15 16 16 14 13 10 13 11 10 9 12 10 7 9 11 15 14 13 13 14 13 12 12 11 10 10 10 10 9 8 7 5 4 3 2 2 2 2 3 6 7 8 8 8 8 8 8
11 12 21 18 16 15 13 12 12 11 8 8 4 7 8 11 14 14 13 12 11 10 10 9 10 10 11 10 6 8 8 6 5 5 3 1 5 4 5 5 1 5 7 8 8 9 9 10 9
14 12 16 21 18 15 12 13 6 5 11 5 5 7 20 20 16 14 10 8 10 8 8 6 8 10 10 9 7 7 6 4 3 5 5 5 4 1 1 6 2 5 6 7 6 7 8 9 13
13 14 20 16 17 15 17 17 13 11 14 8 9 16 19 19 17 16 15 13 11 11 11 10 11 7 9 7 8 5 5 2 1 3 1 1 2 2 3 5 5 6 5 9 6 6 8 8 7
15 18 18 17 13 12 18 15 13 14 15 13 16 15 18 20 17 15 14 14 11 9 7 5 5 7 5 4 3 3 3 3 3 1 5 6 5 3 2 3 1 6 2 6 5 4 5 7 5
18 19 17 10 9 7 15 13 8 6 4 3 20 19 20 17 15 15 14 14 12 10 9 9 8 6 6 6 5 5 3 3 3 5 7 4 4 6 4 6 6 5 5 5 4 4 4 5 6
19 18 16 7 7 13 13 14 9 9 6 16 17 17 18 13 9 9 9 10 11 9 10 10 11 9 8 5 3 4 5 5 7 6 7 6 4 4 6 6 5 5 4 4 5 5 5 6 8
15 21 13 12 12 11 13 10 12 5 8 13 14 16 14 13 11 10 8 10 11 9 8 10 10 8 8 6 6 6 7 6 6 6 7 7 5 5 5 3 3 3 5 6 6 6 7 5 5
18 18 14 14 14 10 15 8 7 13 12 13 15 13 12 11 9 8 6 6 3 4 2 4 1 5 6 10 8 7 6 7 7 6 8 8 8 7 4 4 7 7 7 8 7 8 7 7 7
11 16 19 17 17 9 19 17 10 11 14 14 13 12 11 10 8 6 4 3 2 2 4 5 3 8 11 10 8 7 7 7 5 5 6 9 7 4 5 6 7 7 7 7 6 7 7 7 7
6 12 26 18 17 9 14 11 15 12 13 13 10 10 10 9 7 5 3 2 2 3 3 4 7 12 13 12 10 9 9 6 6 7 5 8 9 10 8 7 6 8 6 7 7 6 7 6 7
3 6 23 21 15 13 18 6 16 13 14 15 11 10 9 9 7 5 4 2 3 3 4 4 6 13 13 10 9 8 6 6 7 6 7 10 9 10 7 7 7 7 6 7 7 7 7 7 7
6 8 8 5 3 15 18 12 16 13 13 13 13 12 10 9 8 6 4 4 5 7 6 4 10 11 9 8 7 6 5 6 7 8 10 10 9 10 8 7 8 7 7 8 8 7 7 7 9
14 3 1 7 12 8 19 14 14 12 11 11 16 15 13 10 9 7 6 5 6 7 6 6 8 9 6 5 7 5 6 7 8 8 9 10 10 11 9 8 8 8 6 9 9 8 6 5 8
17 6 4 1 10 16 10 7 13 8 8 7 11 7 11 12 11 8 6 6 8 8 6 7 7 8 8 9 7 8 9 7 7 7 7 8 9 9 10 9 7 8 7 7 8 8 10 6 6
18 16 10 4 2 3 9 10 16 15 15 10 10 13 14 13 11 9 9 8 8 8 7 7 8 8 6 7 7 8 7 8 7 7 6 7 9 9 9 9 8 8 7 8 7 8 7 8 7
10 16 14 10 2 4 3 7 13 18 15 20 18 16 15 12 9 9 8 7 9 8 9 8 6 7 5 5 8 7 9 8 7 7 8 7 7 9 9 8 8 8 7 8 9 8 8 6 6
6 10 12 13 4 6 8 3 8 18 25 20 19 19 15 16 11 8 8 8 8 6 10 8 9 8 8 9 10 11 10 9 7 6 6 5 5 5 7 8 8 7 7 7 6 6 8 6 6
4 8 5 6 6 6 4 7 5 12 7 18 20 18 16 14 14 11 10 13 12 11 11 7 9 10 9 10 11 10 10 9 8 6 5 5 4 4 7 7 7 6 6 5 5 6 6 6 5
17 12 3 3 4 2 6 4 1 3 6 14 18 15 16 16 14 13 12 11 8 11 12 12 11 12 10 10 11 9 9 5 6 5 5 4 5 4 6 6 5 5 5 5 5 5 5 5 4
11 11 4 2 2 1 1 3 5 4 7 13 18 17 16 15 12 11 12 12 12 10 10 12 12 10 9 10 8 9 7 8 7 6 6 4 5 4 5 4 4 4 4 5 5 4 4 4 4
7 7 6 3 5 4 6 5 4 10 14 18 21 20 17 14 14 14 12 12 10 9 9 8 8 10 9 8 7 8 8 7 6 5 5 5 4 4 4 3 3 3 3 4 3 2 3 4 3
9 10 7 4 3 5 4 4 4 9 15 17 17 20 21 20 19 17 14 13 12 10 9 9 9 9 9 7 8 8 7 6 5 4 4 4 4 3 3 2 2 2 2 3 3 3 3 4 5
5 9 14 7 5 1 3 2 2 3 2 14 14 15 17 15 15 16 15 15 14 12 11 9 8 8 7 7 7 7 6 5 5 4 4 3 3 3 2 1 0 1 2 2 3 4 5 6 6
Wind_Direction
250 221 252 250 233 240 228 184 325 140 148 86 63 349 71 33 9 64 184 131 127 140 135 145 135 132 128 118 110 106 104 101 97 96 95 92 87 79 69 64 60 58 56 53 48 43 38 32 28
246 237 234 259 248 206 212 167 197 131 99 118 102 133 54 79 63 119 139 149 139 138 146 141 146 144 139 128 119 115 111 106 103 100 96 93 87 80 76 68 57 47 49 49 44 34 31 26 20
254 224 246 230 231 232 214 166 143 126 143 160 115 39 52 86 128 132 136 146 139 149 138 126 148 153 144 129 123 119 115 112 106 99 91 85 80 74 66 59 49 40 30 26 24 22 18 11 4
225 192 242 250 224 244 269 168 137 147 153 157 114 98 89 45 126 131 142 145 144 141 136 137 147 148 142 130 126 123 119 114 106 101 95 84 75 67 58 46 36 25 22 26 19 13 12 1 355
224 234 226 223 242 225 216 243 158 173 157 155 180 119 106 72 116 133 144 149 140 139 118 143 144 142 135 128 123 117 113 110 104 100 97 88 78 64 46 29 15 6 1 359 358 356 351 347 346
220 230 219 222 228 218 217 207 178 185 150 128 145 128 103 101 136 139 146 145 145 127 126 128 104 114 118 123 121 122 121 119 115 109 103 93 72 40 22 13 2 357 351 343 341 336 332 330 332
249 209 228 222 221 205 211 189 200 168 162 160 133 137 113 146 155 142 148 149 142 137 140 141 135 117 112 115 118 118 119 115 110 97 82 58 35 15 4 342 344 347 339 334 330 328 323 319 319
258 242 227 226 220 207 201 191 200 185 115 90 328 161 163 154 163 145 142 145 139 144 145 151 142 161 147 139 113 120 120 122 118 125 128 278 254 232 230 258 91 338 323 322 325 327 328 328 312
259 239 227 219 219 208 154 185 201 78 130 98 42 34 120 146 147 119 123 137 138 139 143 148 165 166 139 145 125 125 115 114 178 194 198 236 255 165 54 90 335 303 306 310 311 321 315 296 269
235 228 232 216 216 221 173 194 163 173 149 123 102 96 121 141 142 149 151 149 166 160 146 173 171 179 147 155 150 158 132 163 84 330 297 310 3 18 320 272 235 245 246 259 251 263 271 272 349
237 247 234 232 224 225 176 208 171 190 189 160 158 139 147 156 154 151 168 153 170 152 153 173 159 155 152 136 141 160 155 162 163 111 16 356 334 353 348 330 35 358 225 359 348 355 6 359 357
244 235 245 219 196 237 176 148 165 210 70 97 143 150 152 154 160 159 163 159 156 159 168 166 183 174 183 171 186 166 143 61 78 52 18 346 338 359 338 23 14 6 9 358 356 1 356 9 360
223 243 223 222 184 214 168 177 138 108 71 119 140 149 148 146 144 116 134 139 146 166 170 179 196 176 173 198 139 69 74 67 55 45 29 11 6 11 48 40 28 4 333 11 359 4 3 8 4
224 235 234 197 190 173 175 140 145 140 119 124 133 128 127 126 121 114 139 164 167 159 161 164 184 182 166 126 98 80 68 71 67 52 36 32 40 52 52 49 46 18 355 6 7 359 21 15 6
291 225 218 214 187 166 149 170 170 136 150 147 139 127 121 117 118 122 132 139 137 139 154 167 183 118 122 97 85 73 65 70 68 63 43 41 38 39 32 42 35 23 19 11 20 8 26 7 2
256 229 202 207 190 175 185 185 149 156 157 147 147 141 133 119 115 110 111 115 143 180 175 147 159 157 107 103 91 83 74 74 56 51 54 54 37 35 49 45 39 23 22 17 11 22 6 4 1
245 217 205 184 197 165 198 179 155 168 162 146 153 153 145 132 123 108 101 122 152 160 178 150 165 120 106 98 93 82 78 77 79 70 62 49 40 49 56 52 38 34 32 25 5 22 15 8 359
271 258 214 190 188 200 197 156 158 172 169 157 155 162 160 150 138 119 117 110 100 104 126 131 118 117 116 112 106 99 92 79 74 63 64 59 53 45 50 48 46 41 33 28 15 9 15 15 354
215 265 343 201 70 200 197 162 170 168 187 163 158 170 170 157 144 128 117 105 92 62 69 70 120 125 127 123 116 98 97 101 90 75 60 58 52 56 48 48 39 42 47 34 23 1 18 16 357
237 240 316 303 323 289 193 171 167 174 195 170 179 178 172 158 152 128 119 104 89 71 55 58 112 121 119 112 116 118 117 92 88 81 66 54 54 49 52 47 46 35 45 37 29 24 5 31 22
212 199 134 68 339 298 191 174 177 188 190 191 183 176 169 180 157 138 130 122 106 81 69 70 83 93 93 101 112 116 117 117 104 79 70 55 54 55 54 50 47 47 43 43 31 17 24 18 36
226 198 193 271 257 242 260 215 197 170 186 189 197 180 185 167 150 141 141 133 118 104 91 85 84 99 113 135 153 147 133 115 98 94 84 72 56 55 53 54 48 49 49 44 34 35 27 13 27
229 161 172 178 220 318 223 280 185 169 196 190 188 192 182 146 139 151 140 127 119 115 103 89 90 90 111 113 115 106 105 108 107 105 101 87 74 64 54 52 53 49 45 47 41 38 37 31 24
295 175 182 164 153 241 196 237 175 180 204 185 179 189 175 146 157 161 149 128 105 101 103 117 109 93 92 101 97 101 105 114 119 116 106 96 79 71 60 60 55 54 55 42 46 46 40 37 39
235 192 167 192 174 226 183 196 270 222 192 188 179 179 167 158 159 165 169 150 144 138 121 129 117 114 106 99 91 96 103 105 107 104 94 103 94 76 62 60 53 54 58 61 45 46 44 34 30
215 221 174 207 179 123 117 242 220 306 35 186 166 165 165 165 164 170 176 114 145 143 143 139 128 116 111 102 102 97 96 105 93 85 93 88 85 75 75 71 66 62 53 52 51 43 32 28 12
184 223 189 99 42 23 194 222 220 214 148 151 152 159 164 161 161 166 159 150 160 156 143 137 127 115 115 106 111 106 105 96 100 93 88 86 90 96 81 81 80 63 60 41 48 41 22 13 1
222 187 214 247 186 234 207 219 230 197 187 171 171 183 172 159 167 169 179 155 150 142 132 124 122 116 116 119 117 107 102 103 104 98 96 101 104 104 97 90 79 63 51 42 23 15 12 348 353
202 199 223 184 258 237 228 228 22 190 190 188 177 180 174 170 169 163 161 160 149 147 128 126 128 128 131 128 114 111 113 113 111 116 116 112 110 105 99 98 67 42 22 16 349 344 324 320 321
276 218 221 201 184 222 316 146 35 12 299 181 177 172 167 164 161 161 163 157 155 143 144 150 143 137 137 130 122 127 129 136 136 136 124 132 123 117 120 153 109 336 317 335 316 319 325 314 312